Location: Grieser Field
(39.7333°N, 81.7975°W)
Time: 16:59:30
(UTC-04:00)

Meteor 2-1 Rocket - Visible Passes

Search period start: 26 April 2015 00:00
Search period end: 06 May 2015 00:00
Orbit: 830 x 907 km, 81.3° (Epoch: 26 April)

Date Brightness Start Highest point End Pass type
(mag) Time Alt. Az. Time Alt. Az. Time Alt. Az.
26 Apr 4.5 04:24:29 10° N 04:30:26 75° E 04:36:20 10° SSE visible
27 Apr 7.2 02:38:42 10° NE 02:39:18 10° ENE 02:40:19 10° ENE visible
27 Apr 4.4 04:17:52 10° N 04:23:49 77° E 04:29:03 14° SSE visible
27 Apr 6.0 06:03:30 10° NW 06:06:30 14° W 06:09:08 10° WSW visible
28 Apr 7.1 02:31:46 10° NE 02:32:42 11° ENE 02:34:04 10° ENE visible
28 Apr 4.4 04:11:15 10° N 04:17:12 79° E 04:21:30 20° SSE visible
28 Apr 6.0 05:56:59 10° NW 05:59:52 13° W 06:02:22 10° WSW visible
29 Apr 7.0 02:24:54 10° NE 02:26:07 11° ENE 02:27:45 10° ENE visible
29 Apr 4.4 04:04:38 10° N 04:10:36 80° E 04:14:07 26° SSE visible
29 Apr 6.0 05:50:29 10° WNW 05:53:14 13° W 05:55:36 10° WSW visible
30 Apr 7.0 02:18:05 10° NE 02:19:32 11° ENE 02:21:23 10° ENE visible
30 Apr 4.3 03:58:02 10° N 04:03:59 82° E 04:06:51 32° SSE visible
30 Apr 6.1 05:44:00 10° WNW 05:46:37 13° W 05:48:50 10° WSW visible
01 May 6.9 02:11:18 10° NE 02:12:57 11° ENE 02:14:58 10° E visible
01 May 4.3 03:51:24 10° N 03:57:22 84° E 03:59:42 39° SSE visible
01 May 6.1 05:37:31 10° WNW 05:39:59 12° W 05:42:02 10° WSW visible
02 May 6.9 02:04:32 10° NE 02:06:21 12° ENE 02:08:33 10° E visible
02 May 4.3 03:44:47 10° N 03:50:45 85° E 03:52:36 47° SSE visible
02 May 6.1 05:31:02 10° WNW 05:33:21 12° W 05:34:57 10° W visible
03 May 6.9 01:57:47 10° NE 01:59:46 12° ENE 02:02:07 10° E visible
03 May 4.2 03:38:11 10° N 03:44:09 87° E 03:45:35 54° SSE visible
03 May 6.1 05:24:36 10° WNW 05:26:43 12° W 05:27:56 11° W visible
04 May 6.8 01:51:02 10° NE 01:53:10 12° ENE 01:55:39 10° E visible
04 May 4.2 03:31:34 10° N 03:37:32 89° ENE 03:38:37 62° S visible
04 May 6.2 05:18:10 10° WNW 05:20:05 11° W 05:20:58 11° W visible
05 May 6.8 01:44:19 10° NE 01:46:34 12° ENE 01:49:11 10° E visible
05 May 4.2 03:24:56 10° N 03:30:55 89° W 03:31:41 69° S visible
05 May 6.2 05:11:46 10° WNW 05:13:27 11° W 05:14:03 11° W visible
